Tracking 29790 objects as of 12-Oct-2024
HD Live streaming from Space Station
objects crossing your sky now

SL-14 DEB

Track SL-14 DEB now!
10-day predictions


NORAD ID: 47080
Int'l Code: 1991-056DE
Perigee: 832.8 km
Apogee: 1,073.7 km
Inclination: 82.5 °
Period: 104.0 minutes
Semi major axis: 7324 km
RCS: Unknown
Launch date: August 15, 1991
Source: Commonwealth of Independent States (former USSR) (CIS)
Launch site: PLESETSK MISSILE AND SPACE COMPLEX (PKMTR)

Note: This is SATELLITE DEBRIS
Your satellite tracking list
Your tracking list is empty




NASA's NSSDC Master Catalog

Two Line Element Set (TLE):
1 47080U 91056DE  24285.52058165  .00108371  00000-0  85108-1 0  9996
2 47080  82.5176 102.8847 0164490 124.7252 236.9526 13.85026149196173
Source of the keplerian elements: AFSPC